Temp
-19 -19 -19 -19 -19 -19 -19 -19 -19 -20 -19 -19 -18 -18 -17 -17 -17 -17 -17 -17 -17 -17 -16 -17 -17 -16 -16 -17 -17 -17 -17 -17 -17 -17 -17 -17 -17 -17 -17 -17 -17 -17 -17 -17
-19 -19 -19 -19 -19 -19 -19 -19 -19 -20 -19 -18 -18 -18 -18 -18 -18 -18 -17 -17 -17 -17 -17 -17 -17 -17 -17 -17 -17 -17 -17 -17 -17 -17 -17 -17 -17 -17 -18 -18 -18 -18 -18 -18
-19 -19 -19 -19 -19 -19 -19 -19 -19 -19 -19 -19 -19 -19 -19 -18 -18 -18 -18 -18 -18 -18 -17 -17 -17 -17 -17 -17 -17 -18 -17 -17 -17 -17 -18 -18 -18 -18 -18 -18 -18 -18 -18 -18
-19 -19 -19 -19 -19 -19 -19 -19 -19 -19 -19 -19 -19 -19 -18 -19 -18 -18 -18 -17 -18 -18 -18 -18 -18 -17 -18 -18 -18 -18 -17 -17 -17 -17 -18 -18 -18 -18 -19 -18 -19 -19 -19 -19
-19 -18 -18 -19 -19 -19 -19 -19 -19 -20 -20 -20 -19 -19 -19 -19 -18 -18 -18 -18 -18 -18 -18 -18 -18 -18 -18 -18 -18 -18 -18 -18 -18 -18 -18 -18 -18 -18 -19 -19 -19 -19 -19 -19
-19 -19 -19 -18 -19 -19 -20 -19 -20 -19 -19 -19 -19 -19 -19 -19 -19 -18 -18 -18 -18 -18 -18 -18 -18 -18 -18 -18 -18 -18 -18 -18 -18 -18 -18 -18 -19 -19 -19 -19 -19 -19 -18 -19
-19 -19 -19 -19 -19 -20 -19 -19 -19 -20 -20 -20 -20 -19 -20 -19 -19 -19 -19 -19 -19 -19 -19 -19 -19 -19 -19 -19 -18 -18 -18 -19 -19 -19 -19 -19 -19 -19 -19 -19 -19 -19 -19 -19
-20 -20 -21 -21 -21 -20 -20 -20 -20 -20 -20 -20 -20 -20 -20 -20 -20 -20 -20 -19 -19 -19 -19 -19 -19 -19 -19 -19 -19 -19 -19 -19 -19 -19 -19 -19 -19 -19 -19 -19 -19 -19 -19 -20
-21 -21 -21 -22 -21 -22 -21 -21 -21 -21 -21 -21 -21 -21 -21 -21 -21 -21 -20 -20 -20 -20 -20 -19 -19 -19 -19 -19 -19 -19 -19 -19 -19 -19 -19 -19 -19 -19 -20 -20 -20 -19 -19 -19
-21 -21 -21 -22 -22 -22 -22 -22 -22 -22 -22 -21 -21 -21 -21 -21 -21 -21 -21 -21 -20 -20 -20 -20 -20 -20 -20 -20 -20 -20 -20 -19 -19 -20 -19 -19 -19 -19 -20 -20 -20 -19 -19 -19
-21 -22 -22 -22 -22 -22 -22 -22 -22 -22 -22 -22 -22 -22 -22 -22 -21 -21 -21 -21 -21 -20 -20 -20 -20 -20 -20 -20 -20 -20 -20 -20 -20 -20 -20 -20 -20 -20 -19 -20 -20 -19 -19 -19
-21 -21 -22 -22 -22 -22 -22 -22 -22 -22 -22 -22 -22 -22 -22 -22 -22 -22 -22 -22 -21 -21 -21 -21 -20 -20 -20 -20 -20 -20 -20 -20 -20 -20 -20 -20 -20 -20 -19 -19 -20 -19 -19 -19
-21 -21 -22 -22 -22 -22 -23 -23 -23 -23 -23 -23 -23 -23 -23 -23 -23 -23 -23 -22 -22 -22 -22 -22 -21 -21 -21 -21 -20 -20 -20 -20 -20 -20 -20 -20 -20 -19 -19 -20 -19 -19 -19 -19
-21 -21 -21 -21 -22 -22 -22 -23 -23 -23 -23 -24 -24 -24 -24 -24 -24 -24 -23 -23 -23 -22 -22 -22 -22 -22 -21 -21 -21 -21 -20 -20 -20 -20 -20 -20 -20 -20 -20 -19 -19 -19 -19 -19
-21 -21 -21 -22 -22 -22 -22 -23 -23 -23 -23 -24 -24 -24 -24 -24 -24 -24 -24 -23 -23 -23 -23 -22 -22 -22 -22 -21 -21 -21 -21 -21 -20 -20 -20 -20 -20 -20 -20 -20 -20 -19 -19 -19
-22 -23 -23 -23 -23 -23 -23 -23 -23 -24 -24 -23 -24 -24 -24 -24 -24 -24 -24 -24 -24 -23 -23 -23 -22 -22 -22 -22 -22 -22 -21 -21 -21 -21 -20 -20 -20 -20 -20 -20 -20 -20 -20 -19
-23 -23 -24 -24 -24 -24 -24 -24 -24 -24 -24 -25 -25 -24 -24 -24 -23 -23 -24 -24 -23 -23 -23 -24 -23 -23 -22 -22 -22 -22 -22 -21 -21 -21 -21 -20 -20 -20 -20 -20 -20 -20 -20 -20
-23 -24 -24 -24 -24 -25 -25 -25 -24 -24 -24 -24 -24 -24 -24 -24 -24 -24 -24 -24 -24 -24 -24 -24 -23 -23 -23 -23 -22 -22 -22 -21 -21 -21 -21 -21 -21 -20 -20 -20 -20 -20 -20 -20
-24 -25 -25 -25 -25 -25 -25 -25 -25 -25 -25 -25 -25 -25 -25 -25 -25 -24 -24 -24 -25 -24 -24 -24 -24 -24 -24 -23 -23 -22 -22 -22 -21 -21 -21 -21 -21 -21 -21 -21 -21 -21 -21 -21
-24 -25 -25 -25 -26 -26 -25 -27 -27 -27 -28 -27 -27 -26 -26 -26 -25 -25 -25 -25 -25 -25 -25 -25 -25 -24 -24 -24 -23 -23 -22 -22 -21 -21 -21 -21 -21 -21 -21 -21 -21 -21 -21 -21
-25 -25 -25 -25 -25 -27 -28 -28 -29 -30 -30 -30 -30 -30 -29 -29 -28 -27 -27 -26 -26 -25 -25 -25 -25 -24 -24 -24 -24 -23 -22 -22 -22 -22 -22 -22 -22 -21 -21 -22 -22 -21 -21 -21
-25 -25 -25 -25 -27 -28 -29 -29 -31 -31 -32 -32 -32 -33 -32 -32 -32 -31 -30 -30 -29 -28 -27 -26 -25 -25 -24 -24 -23 -23 -24 -24 -24 -24 -23 -23 -22 -21 -22 -22 -22 -21 -21 -21
-25 -25 -25 -27 -28 -28 -29 -30 -32 -33 -33 -34 -34 -34 -34 -33 -33 -33 -32 -32 -31 -30 -29 -28 -26 -25 -25 -24 -24 -24 -24 -24 -24 -24 -24 -23 -22 -22 -22 -22 -22 -22 -22 -22
-25 -25 -27 -28 -29 -29 -30 -31 -32 -33 -34 -34 -34 -33 -33 -33 -32 -32 -32 -31 -31 -30 -29 -28 -26 -25 -25 -24 -24 -24 -24 -24 -24 -24 -23 -23 -23 -23 -22 -22 -22 -22 -23 -23
-25 -26 -28 -29 -29 -30 -30 -31 -32 -33 -34 -34 -33 -33 -32 -32 -32 -31 -31 -31 -30 -29 -29 -28 -26 -25 -25 -24 -24 -24 -24 -24 -24 -24 -24 -23 -23 -23 -23 -22 -23 -23 -23 -22
-26 -28 -29 -29 -29 -30 -30 -31 -32 -33 -33 -34 -34 -33 -32 -32 -32 -31 -31 -30 -30 -29 -28 -26 -25 -25 -24 -24 -24 -24 -23 -23 -24 -23 -23 -23 -23 -23 -23 -23 -24 -23 -23 -23
-27 -29 -30 -30 -30 -30 -30 -31 -31 -32 -33 -33 -34 -33 -32 -32 -31 -31 -30 -30 -29 -28 -27 -26 -25 -25 -24 -24 -24 -24 -24 -24 -23 -23 -23 -23 -23 -23 -24 -24 -24 -23 -23 -23
Height
5646 5647 5648 5650 5652 5653 5656 5659 5660 5663 5663 5664 5666 5667 5670 5671 5674 5675 5676 5677 5678 5679 5680 5681 5682 5682 5683 5684 5684 5684 5684 5684 5684 5683 5683 5684 5685 5684 5685 5685 5684 5685 5685 5684
5644 5645 5645 5647 5648 5650 5652 5653 5656 5658 5660 5659 5660 5662 5664 5667 5667 5667 5668 5669 5669 5670 5671 5672 5673 5672 5673 5674 5674 5674 5673 5673 5673 5673 5673 5673 5673 5673 5673 5673 5673 5673 5672 5672
5642 5643 5644 5646 5646 5647 5648 5648 5651 5653 5655 5655 5656 5657 5658 5658 5659 5660 5660 5660 5660 5660 5661 5662 5663 5663 5663 5664 5664 5664 5664 5663 5662 5661 5661 5661 5660 5660 5661 5661 5661 5660 5660 5660
5640 5640 5641 5643 5643 5644 5644 5645 5647 5647 5649 5650 5649 5648 5649 5650 5649 5649 5649 5649 5649 5650 5651 5652 5653 5654 5653 5653 5654 5654 5654 5654 5653 5651 5650 5649 5649 5649 5649 5649 5648 5648 5649 5648
5636 5637 5638 5638 5638 5638 5639 5640 5638 5638 5638 5639 5640 5640 5640 5639 5639 5639 5639 5639 5639 5640 5641 5641 5642 5643 5642 5642 5643 5643 5643 5643 5642 5642 5640 5640 5640 5639 5639 5638 5637 5637 5637 5637
5629 5630 5631 5631 5631 5631 5631 5631 5630 5630 5630 5630 5630 5630 5629 5629 5629 5628 5629 5629 5629 5629 5629 5629 5629 5630 5631 5630 5630 5631 5631 5632 5631 5631 5631 5630 5629 5629 5629 5628 5627 5626 5625 5625
5623 5625 5624 5623 5622 5621 5623 5625 5621 5620 5620 5620 5620 5621 5620 5619 5618 5618 5618 5617 5617 5618 5617 5618 5618 5618 5618 5619 5619 5619 5619 5619 5620 5620 5620 5619 5619 5619 5619 5618 5616 5615 5614 5614
5618 5616 5615 5612 5615 5618 5616 5614 5613 5612 5611 5611 5610 5610 5609 5608 5608 5607 5605 5606 5606 5607 5606 5607 5607 5607 5607 5607 5607 5608 5608 5608 5609 5609 5609 5608 5608 5608 5608 5607 5606 5605 5604 5604
5611 5609 5607 5608 5611 5609 5608 5606 5605 5603 5602 5602 5601 5600 5599 5598 5597 5596 5596 5596 5596 5596 5596 5596 5596 5596 5597 5597 5597 5597 5598 5598 5598 5598 5598 5597 5598 5598 5597 5597 5596 5596 5595 5595
5604 5604 5601 5604 5603 5602 5600 5599 5598 5596 5595 5593 5591 5590 5589 5587 5587 5586 5585 5585 5585 5586 5586 5585 5586 5586 5586 5587 5587 5588 5588 5588 5588 5588 5588 5588 5588 5588 5587 5587 5587 5587 5588 5588
5597 5596 5596 5595 5594 5593 5591 5588 5586 5585 5584 5582 5581 5579 5578 5576 5575 5574 5573 5573 5573 5574 5574 5575 5575 5576 5576 5576 5577 5578 5578 5578 5578 5578 5578 5577 5578 5577 5578 5578 5578 5579 5580 5580
5592 5589 5588 5586 5584 5582 5581 5578 5576 5574 5571 5569 5567 5566 5565 5564 5563 5562 5561 5560 5560 5561 5562 5563 5564 5564 5565 5565 5566 5567 5568 5568 5568 5569 5567 5566 5567 5567 5567 5567 5569 5570 5571 5572
5588 5585 5582 5580 5577 5573 5570 5568 5566 5563 5561 5559 5556 5554 5552 5551 5550 5549 5549 5549 5549 5549 5549 5550 5551 5552 5553 5554 5555 5556 5557 5558 5559 5559 5559 5559 5558 5557 5557 5558 5560 5562 5563 5564
5583 5580 5577 5574 5570 5567 5564 5560 5557 5553 5550 5548 5545 5543 5541 5539 5537 5536 5535 5535 5536 5536 5536 5536 5538 5540 5541 5542 5543 5544 5546 5547 5548 5549 5550 5550 5550 5550 5549 5550 5551 5553 5554 5556
5576 5572 5569 5564 5560 5557 5554 5550 5546 5542 5539 5535 5533 5530 5529 5527 5525 5523 5522 5522 5521 5521 5522 5523 5524 5525 5527 5529 5530 5532 5533 5535 5536 5538 5539 5540 5541 5542 5542 5543 5544 5544 5546 5547
5567 5563 5559 5555 5550 5545 5541 5536 5532 5528 5524 5522 5518 5515 5513 5510 5508 5507 5507 5507 5507 5507 5507 5508 5509 5510 5512 5514 5517 5518 5520 5522 5524 5526 5528 5530 5531 5533 5534 5535 5536 5537 5538 5538
5556 5551 5548 5543 5538 5532 5526 5521 5516 5511 5505 5501 5499 5497 5494 5491 5490 5490 5489 5489 5489 5490 5492 5493 5493 5494 5496 5498 5501 5505 5506 5509 5511 5514 5516 5519 5521 5523 5524 5526 5527 5529 5530 5531
5544 5539 5534 5529 5524 5517 5512 5504 5498 5491 5485 5480 5474 5471 5470 5469 5469 5468 5468 5469 5469 5471 5474 5475 5478 5479 5480 5482 5485 5488 5492 5495 5497 5500 5503 5507 5509 5511 5514 5515 5517 5518 5520 5521
5530 5524 5518 5512 5506 5499 5492 5484 5477 5469 5461 5455 5450 5445 5441 5439 5438 5442 5443 5445 5447 5451 5453 5456 5460 5462 5464 5466 5469 5472 5475 5480 5483 5486 5490 5494 5497 5500 5503 5505 5507 5508 5509 5510
5515 5509 5502 5496 5486 5476 5466 5455 5448 5440 5432 5425 5420 5415 5412 5408 5407 5410 5413 5417 5421 5426 5431 5436 5441 5445 5448 5450 5453 5456 5460 5463 5468 5472 5477 5481 5485 5488 5491 5494 5496 5498 5499 5501
5502 5494 5486 5477 5467 5453 5441 5432 5423 5415 5407 5398 5391 5386 5382 5379 5377 5378 5381 5387 5391 5401 5407 5414 5421 5427 5431 5434 5438 5441 5444 5448 5452 5457 5463 5468 5473 5477 5479 5482 5484 5487 5489 5490
5486 5478 5468 5457 5446 5436 5424 5415 5405 5397 5390 5383 5376 5369 5364 5361 5359 5359 5359 5363 5369 5376 5384 5392 5401 5409 5415 5420 5424 5427 5432 5438 5442 5446 5452 5457 5462 5466 5469 5472 5474 5477 5479 5481
5472 5462 5451 5441 5431 5421 5410 5401 5392 5385 5379 5374 5368 5363 5358 5354 5353 5352 5352 5354 5359 5365 5371 5376 5384 5393 5401 5406 5411 5417 5422 5428 5432 5437 5442 5447 5451 5455 5459 5462 5465 5467 5470 5472
5458 5446 5435 5426 5418 5408 5400 5390 5382 5375 5372 5368 5363 5358 5354 5352 5350 5349 5349 5351 5355 5359 5363 5367 5373 5382 5390 5395 5402 5408 5413 5419 5422 5427 5433 5438 5441 5446 5450 5453 5457 5460 5462 5464
5443 5432 5422 5414 5406 5397 5389 5382 5375 5368 5365 5362 5358 5354 5350 5348 5347 5347 5347 5349 5351 5353 5357 5360 5366 5374 5380 5386 5394 5399 5405 5410 5415 5420 5425 5429 5433 5438 5442 5445 5448 5451 5454 5457
5428 5418 5410 5402 5395 5387 5379 5372 5366 5360 5357 5355 5353 5350 5347 5344 5343 5344 5345 5346 5346 5348 5350 5355 5362 5369 5374 5381 5388 5393 5398 5402 5407 5412 5416 5421 5426 5430 5434 5437 5442 5445 5448 5451
5414 5405 5399 5393 5384 5376 5369 5363 5357 5352 5348 5347 5347 5344 5343 5341 5340 5340 5341 5341 5340 5343 5346 5352 5358 5365 5371 5377 5382 5388 5393 5397 5402 5406 5410 5414 5418 5422 5427 5432 5436 5440 5442 5444
Wind_Speed
9 7 8 8 10 13 16 17 20 20 22 24 23 22 22 23 20 21 24 25 27 29 31 31 32 33 33 34 35 36 38 39 40 41 41 43 44 44 45 46 46 48 49 48
9 9 12 13 11 12 12 16 16 19 18 22 23 23 21 16 21 24 25 25 26 30 31 31 31 32 33 31 29 30 31 33 35 39 42 45 47 47 46 45 46 45 46 46
11 10 9 9 10 10 12 15 15 16 18 19 21 21 21 25 26 27 28 28 27 28 30 30 30 32 33 33 33 31 30 31 32 37 42 44 46 46 45 44 43 41 42 43
14 14 13 13 15 15 16 16 16 19 19 20 25 28 28 28 30 31 31 32 32 33 34 33 34 36 36 35 35 33 34 35 35 33 34 38 39 40 41 41 41 41 41 43
21 23 22 21 21 21 22 20 21 21 21 22 23 25 28 28 30 31 33 33 33 35 38 39 40 38 39 39 39 38 37 37 37 36 36 36 38 38 39 41 42 43 44 46
22 23 25 25 25 23 23 24 23 25 26 28 29 29 33 32 33 35 36 35 35 37 38 38 38 39 40 40 41 42 40 39 39 39 37 36 36 37 38 40 41 41 40 40
24 24 27 27 28 28 26 28 29 29 30 30 31 32 33 34 34 35 35 34 36 35 35 37 38 39 38 38 37 38 37 37 38 38 35 36 37 36 36 35 36 36 35 35
24 26 29 30 29 29 31 32 33 34 33 32 31 31 32 32 33 34 34 36 35 34 34 34 33 33 33 32 32 33 33 34 35 37 37 37 39 37 35 33 33 34 31 31
25 26 29 26 23 25 27 28 29 29 30 30 31 32 33 33 34 34 35 35 34 33 33 33 33 31 30 30 33 33 31 31 32 33 34 35 34 34 34 32 31 30 26 27
27 27 31 28 26 28 30 31 33 33 33 34 34 34 34 35 37 37 38 38 37 35 34 34 34 33 32 32 31 31 31 31 30 30 32 33 32 32 31 29 28 27 26 25
20 25 28 30 30 31 33 36 36 40 41 42 41 40 39 37 36 37 38 38 39 38 38 38 36 35 33 33 32 32 30 30 31 31 33 33 33 33 33 30 29 25 26 25
17 22 25 27 29 31 33 36 38 40 39 39 40 41 41 40 40 37 37 37 37 37 35 37 38 38 36 35 34 33 32 29 29 28 25 25 32 35 36 32 28 22 23 24
19 21 23 24 24 25 26 28 29 31 33 32 31 31 31 30 31 33 35 36 38 39 38 37 37 36 37 38 37 36 34 32 29 28 28 24 23 20 24 27 28 24 25 22
22 23 24 25 25 26 27 29 30 30 31 34 34 35 35 36 35 33 36 35 34 35 37 39 39 38 38 38 37 37 36 35 33 30 28 26 23 22 15 22 25 28 27 26
29 31 32 35 37 37 37 37 37 37 37 38 37 36 35 34 36 37 36 36 37 39 40 38 39 39 38 40 40 39 38 37 37 34 32 31 28 25 23 22 21 26 26 29
32 32 35 39 43 46 47 48 50 50 49 49 50 51 50 49 45 41 40 38 34 35 41 43 48 45 45 43 43 41 41 40 39 38 35 34 33 31 29 28 26 25 22 28
36 39 40 44 47 51 55 57 59 61 62 60 57 57 58 59 57 55 53 50 49 47 42 38 46 47 49 49 48 45 45 43 42 39 38 35 35 34 34 33 31 29 28 26
41 42 43 44 47 50 52 56 59 61 63 65 67 66 64 62 61 61 61 60 57 55 51 47 43 46 50 50 51 48 47 48 44 43 41 39 35 34 32 32 31 31 32 33
45 44 45 47 50 52 55 57 60 62 66 67 69 70 70 70 68 67 67 66 64 61 59 54 50 45 47 50 47 49 48 45 47 43 43 41 39 38 35 33 31 31 31 32
50 50 52 54 59 65 68 68 67 67 68 70 72 75 76 77 76 74 72 70 68 65 62 59 51 49 46 48 47 45 47 48 49 47 46 43 40 39 38 36 34 32 31 29
53 56 60 66 64 60 59 59 57 56 54 52 52 51 51 54 61 66 67 66 64 63 61 58 54 50 48 46 43 40 43 42 38 41 45 43 41 39 34 34 33 32 32 32
60 64 67 62 55 53 55 53 49 47 45 40 36 37 34 34 34 36 39 41 42 43 46 50 50 47 47 41 34 30 31 30 33 36 40 41 40 35 30 28 28 29 28 28
66 69 64 53 50 51 54 51 44 42 35 31 30 29 24 19 18 18 19 23 27 31 34 38 43 43 44 36 34 27 28 37 39 36 36 37 34 30 28 26 25 24 23 21
69 69 56 49 49 52 53 47 42 37 31 30 28 26 22 17 16 15 13 14 17 22 25 29 33 36 35 30 35 35 34 31 37 37 35 33 30 27 26 22 22 22 21 20
72 65 51 47 49 52 54 50 41 35 28 26 27 22 20 18 14 13 13 12 17 17 19 22 30 30 26 26 28 28 31 33 31 31 34 32 30 30 27 26 24 19 19 18
70 56 47 48 51 53 52 51 43 35 27 21 24 19 19 13 13 12 11 14 16 17 16 23 27 27 21 31 27 25 19 31 32 33 32 31 30 28 27 20 16 18 17 17
60 49 46 48 53 54 52 50 46 35 27 22 19 17 16 13 12 9 13 15 14 13 17 23 24 23 21 25 24 18 20 19 22 32 32 30 28 23 18 19 18 18 17 17
Wind_Direction
193 192 209 226 233 240 241 228 231 226 231 238 243 243 241 240 252 252 248 246 249 255 258 260 265 269 270 267 266 267 267 267 266 264 264 263 262 264 266 267 268 268 272 275
230 254 235 239 255 249 233 236 235 228 237 242 244 247 249 252 251 255 260 263 261 258 260 264 267 271 269 268 269 272 271 271 272 271 269 268 265 266 266 267 268 269 271 273
255 248 241 248 248 241 238 240 240 237 232 245 254 262 258 255 260 265 267 266 265 266 269 267 265 268 268 266 270 273 271 271 276 276 270 268 265 262 262 263 266 268 269 269
250 261 259 261 254 246 249 254 257 253 249 246 249 253 258 260 262 268 271 271 269 266 264 263 266 268 267 268 269 268 269 271 274 278 276 270 265 263 263 263 263 264 265 267
257 265 270 269 267 262 264 263 265 265 264 263 260 260 264 264 266 266 266 267 267 265 263 263 263 263 265 265 268 268 266 268 270 270 269 269 268 265 265 266 268 269 270 271
264 266 266 265 270 272 270 270 268 266 267 269 268 268 267 265 264 265 263 263 264 265 264 265 266 264 264 265 265 267 267 265 266 267 267 267 267 267 270 274 274 272 272 272
262 265 266 264 264 266 266 266 267 264 261 259 261 262 263 265 265 263 262 265 267 265 265 265 266 266 267 267 267 267 266 265 266 269 267 264 264 267 274 277 279 277 273 270
266 265 263 265 269 271 268 268 266 266 267 269 268 268 268 267 266 268 271 269 265 265 265 263 263 266 267 266 266 264 264 263 264 265 264 263 265 269 274 275 278 275 272 271
269 270 274 278 278 274 271 269 270 272 274 274 274 275 275 274 273 269 267 267 267 265 265 263 261 264 266 261 266 265 262 262 264 266 266 266 268 269 268 270 275 271 265 259
272 272 277 282 278 276 276 276 277 277 276 276 277 277 276 276 273 271 270 268 267 266 265 264 264 264 263 263 262 262 262 262 263 268 267 266 268 269 267 268 269 259 263 267
296 288 282 283 283 280 277 276 275 275 275 273 273 273 273 272 270 268 268 267 266 264 264 265 264 263 262 261 261 261 266 263 263 265 269 268 269 268 266 264 265 259 260 265
298 294 291 287 285 284 282 281 281 281 282 281 277 273 270 270 270 268 264 264 264 264 263 263 262 260 259 258 258 258 263 263 263 263 274 271 261 271 271 256 251 253 262 261
311 304 291 290 291 288 288 288 289 288 287 286 285 285 282 274 270 266 265 262 261 262 263 262 262 261 259 257 257 256 257 261 260 261 263 267 267 273 267 248 245 260 263 264
305 307 305 304 301 298 294 291 289 289 290 288 286 285 282 279 276 269 263 259 260 262 261 260 260 259 262 262 260 257 256 256 258 256 258 264 267 263 271 263 258 251 263 255
295 296 297 296 296 295 295 293 291 289 290 291 292 290 287 284 281 276 273 270 268 261 260 263 262 259 259 261 262 261 258 255 255 255 256 259 262 266 269 273 279 254 254 250
304 298 295 294 294 293 292 290 287 287 286 286 287 288 289 288 288 286 282 278 274 271 267 261 259 261 261 255 254 256 259 256 254 254 253 254 256 259 262 265 267 269 268 257
303 298 294 290 290 289 290 291 291 291 290 287 285 283 282 282 280 278 277 276 276 276 271 272 266 261 257 257 254 252 255 257 254 253 251 252 253 253 256 260 261 261 259 261
308 303 300 296 294 292 292 290 289 287 285 283 282 280 277 274 273 273 275 275 276 274 274 275 273 268 261 257 254 255 257 256 256 252 250 248 248 252 255 258 260 259 258 255
312 310 309 305 303 300 297 293 289 285 282 280 278 278 277 276 273 269 268 269 271 272 273 273 271 272 266 256 253 253 250 252 254 254 250 248 247 249 251 254 257 258 257 257
316 317 315 314 310 307 302 296 294 291 287 283 279 277 275 275 273 271 270 269 268 268 269 269 267 265 266 257 251 252 249 254 254 248 248 246 247 248 249 251 252 254 257 257
320 319 319 318 316 309 308 309 306 304 302 299 295 290 285 279 274 272 270 267 265 263 262 262 261 258 257 252 251 249 253 254 243 240 241 242 245 246 248 249 249 250 251 256
322 323 324 324 319 319 320 318 315 313 313 310 308 306 297 287 278 272 263 255 247 243 243 245 246 243 246 246 238 233 226 221 231 238 242 239 239 240 243 244 245 248 250 252
325 326 329 322 322 327 328 325 322 318 319 317 316 324 324 310 311 295 272 260 247 238 235 235 232 232 233 237 226 227 227 228 241 242 236 230 229 231 233 240 244 243 243 244
327 330 325 322 326 330 333 328 325 316 317 314 317 320 324 323 303 288 271 248 246 243 242 236 231 223 226 229 227 236 245 228 231 223 223 226 221 223 224 224 235 236 239 246
329 329 323 322 326 328 332 331 325 315 310 305 305 317 317 319 308 284 270 255 254 248 243 231 220 215 228 229 220 237 221 229 230 229 234 223 219 219 222 236 230 233 239 236
330 326 321 321 325 327 329 328 323 318 306 292 295 302 310 306 300 275 258 274 268 262 232 213 212 207 220 216 216 219 234 225 225 222 215 214 220 221 225 213 218 221 227 240
327 322 320 321 323 324 325 326 325 315 300 283 286 290 297 291 273 249 280 289 272 243 211 207 207 203 213 199 205 208 229 233 236 226 224 219 213 199 194 203 212 224 238 254